Regional Weather Roundup
Issued by NWS

Home | Current Version | Previous Version | Graphics & Text | Print | Product List | Glossary On
Versions: 1 2 3 4 5 6 7 8 9 10 11 12 13 14 15 16 17 18 19 20 21 22 23 24 25 26 27 28
000
ASUS45 KCYS 230610
RWRWY

WYOMING REGIONAL WEATHER ROUNDUP
NATIONAL WEATHER SERVICE CHEYENNE WY
1200 AM MDT WED AUG 23 2017

NOTE:  "FAIR" INDICATES FEW OR NO CLOUDS BELOW 12,000 FEET
WITH NO SIGNIFICANT WEATHER AND/OR OBSTRUCTIONS TO VISIBILITY.

WYZ001-230700-
YELLOWSTONE NATIONAL PARK

CITY           SKY/WX    TMP DP  RH WIND       PRES   REMARKS
LK YELLOWSTONE   N/A     45  30  55 CALM      30.40F
6HR MIN TEMP:  43; 6HR MAX TEMP:  74;

W YELLOWSTONE  NOT AVBL

$$
WYZ002>013-054>058-071-098>099-230700-
NORTHERN WYOMING

CITY           SKY/WX    TMP DP  RH WIND       PRES   REMARKS
JACKSON        FAIR      47  32  56 N9        30.28F
CODY           FAIR      63  36  36 S6        30.18F
GREYBULL       FAIR      64  38  38 S5        30.07S
6HR MIN TEMP:  64; 6HR MAX TEMP:  91;

WORLAND        FAIR      62  35  36 SW3       30.09S
6HR MIN TEMP:  61; 6HR MAX TEMP:  89;

SHERIDAN       FAIR      57  42  57 CALM      30.09F
6HR MIN TEMP:  55; 6HR MAX TEMP:  88;

BUFFALO        FAIR      65  34  31 W9        30.18F
6HR MIN TEMP:  65; 6HR MAX TEMP:  85;

GILLETTE       FAIR      63  38  39 SE5       30.12F
6HR MIN TEMP:  56; 6HR MAX TEMP:  85;

HULETT         FAIR      63  43  48 S9        30.14S
NEWCASTLE      FAIR      68  45  42 SE10      30.13F

$$
WYZ014>020-022>026-101>103-230700-
CENTRAL WYOMING

CITY           SKY/WX    TMP DP  RH WIND       PRES   REMARKS
BIG PINEY      FAIR      54  31  41 E6        30.33S
6HR MIN TEMP:  54; 6HR MAX TEMP:  83;

PINEDALE       FAIR      46  32  57 NW6       30.34S
DUBOIS         FAIR      55  27  33 NW9       30.33F
LANDER           N/A    N/A N/A N/A MISG      30.18S
RIVERTON       FAIR      69  30  23 E6        30.19S
6HR MIN TEMP:  68; 6HR MAX TEMP:  85;

CASPER         FAIR      58  41  53 W5        30.18S
6HR MIN TEMP:  57; 6HR MAX TEMP:  86;

DOUGLAS        FAIR      63  50  62 E9        30.17F
6HR MIN TEMP:  63; 6HR MAX TEMP:  84;


$$
WYZ021-027>030-104>119-230700-
SOUTHERN WYOMING

CITY           SKY/WX    TMP DP  RH WIND       PRES   REMARKS
EVANSTON       MOCLDY    61  41  47 S7        30.35F
6HR MIN TEMP:  61; 6HR MAX TEMP:  72;

KEMMERER         N/A    N/A N/A N/A CALM      30.36S
FORT BRIDGER   FAIR      66  36  32 SW8       30.35F
ROCK SPRINGS   FAIR      67  36  31 SW13      30.30F
6HR MIN TEMP:  67; 6HR MAX TEMP:  83;

DIXON          FAIR      57  35  44 CALM      30.34S
RAWLINS        NOT AVBL
SARATOGA       FAIR      55  36  47 CALM      30.33S
LARAMIE        FAIR      54  50  86 S6        30.32F
6HR MIN TEMP:  54; 6HR MAX TEMP:  80;

CHEYENNE       FAIR      58  53  84 W6        30.25F
6HR MIN TEMP:  57; 6HR MAX TEMP:  76;

TORRINGTON     FAIR      64  52  64 E13       30.13F
6HR MIN TEMP:  64; 6HR MAX TEMP:  83;

PINE BLUFFS    FAIR      57  52  82 CALM      30.19F

$$




USA.gov is the U.S. government's official web portal to all federal, state and local government web resources and services.